Date String (YYYY-MM-DD hh:mm:ss) UTC,Instrument flags,Ambient pressure (hPa),Sample flow (lpm),Bypass flow (lpm),Sample temperature (°C),Ambient temperature (°C),ASC tube jacket temperature (°C),LED temperature (°C),Box temperature (°C),Sample RH (%),Span deviation,Mass concentration (μg/m³),Mass concentration (μg/m³),Mass concentration (μg/m³)
DateTimeUTC,F1_M11,P_M11,Q1_M11,Q2_M11,T1_M11,T2_M11,T3_M11,T4_M11,T5_M11,U1_M11,ZSPAN_M11,X0_M11,X2_M11,X1_M11
2022-05-13 01:00:00,,0823.4,5.00,0.00,29.9,29.2,00.0,38.9,31.7,04.9,0000.0,0008.62,0002.94,0001.39
2022-05-13 01:01:00,,0823.4,5.00,0.00,29.9,29.3,00.0,38.9,31.7,04.9,0000.0,0008.55,0002.94,0001.38
2022-05-13 01:02:00,,0823.3,4.99,0.00,29.9,29.2,00.0,38.9,31.7,04.8,0000.0,0008.94,0002.98,0001.38
2022-05-13 01:03:00,,0823.3,5.01,0.00,29.9,29.2,00.0,38.9,31.7,04.7,0000.0,0008.53,0003.07,0001.38
2022-05-13 01:04:00,,0823.3,4.99,0.00,29.9,29.2,00.0,38.9,31.7,04.7,0000.0,0008.97,0003.13,0001.38
2022-05-13 01:05:00,,0823.3,5.00,0.00,29.9,29.2,00.0,38.9,31.7,04.8,0000.0,0008.98,0003.15,0001.39
2022-05-13 01:06:00,,0823.3,5.00,0.00,29.9,29.2,00.0,38.9,31.7,04.8,0000.0,0008.17,0003.07,0001.38
2022-05-13 01:07:00,,0823.3,5.00,0.00,29.9,29.2,00.0,38.9,31.7,04.9,0000.0,0007.97,0003.00,0001.37
2022-05-13 01:08:00,,0823.3,5.01,0.00,29.9,29.2,00.0,38.9,31.7,05.0,0000.0,0007.79,0002.99,0001.37
2022-05-13 01:09:00,,0823.4,5.00,0.00,29.9,29.2,00.0,38.9,31.7,05.1,0000.0,0008.05,0003.11,0001.35
2022-05-13 01:10:00,,0823.5,4.99,0.00,29.9,29.2,00.0,38.9,31.7,05.1,0000.0,0008.26,0003.14,0001.34
2022-05-13 01:11:00,,0823.4,5.00,0.00,29.9,29.2,00.0,38.9,31.7,05.1,0000.0,0008.86,0003.12,0001.33
2022-05-13 01:12:00,,0823.4,5.01,0.00,29.9,29.2,00.0,38.9,31.6,04.9,0000.0,0009.24,0003.13,0001.33
2022-05-13 01:13:00,,0823.5,5.00,0.00,29.9,29.2,00.0,38.9,31.6,04.9,0000.0,0008.84,0003.13,0001.32
2022-05-13 01:14:00,,0823.6,4.99,0.00,29.9,29.2,00.0,38.9,31.6,05.1,0000.0,0009.09,0003.09,0001.32
2022-05-13 01:15:00,,0823.6,5.00,0.00,29.9,29.2,00.0,38.9,31.6,05.2,0000.0,0008.69,0003.05,0001.31
2022-05-13 01:16:00,,0823.7,5.01,0.00,29.9,29.2,00.0,38.9,31.6,05.2,0000.0,0008.55,0003.01,0001.30
2022-05-13 01:17:00,,0823.6,5.01,0.00,29.9,29.2,00.0,38.9,31.6,05.1,0000.0,0008.64,0003.04,0001.31
2022-05-13 01:18:00,,0823.7,4.99,0.00,29.9,29.2,00.0,38.9,31.6,05.0,0000.0,0008.78,0003.06,0001.30
2022-05-13 01:19:00,,0823.6,4.99,0.00,29.9,29.2,00.0,38.8,31.6,05.0,0000.0,0008.72,0003.00,0001.29
2022-05-13 01:20:00,,0823.6,5.00,0.00,29.9,29.2,00.0,38.8,31.6,05.1,0000.0,0008.54,0002.93,0001.30
2022-05-13 01:21:00,,0823.3,4.99,0.00,29.9,29.2,00.0,38.8,31.6,05.0,0000.0,0008.41,0002.89,0001.30
2022-05-13 01:22:00,,0823.5,5.00,0.00,29.9,29.2,00.0,38.9,31.6,04.9,0000.0,0007.73,0002.91,0001.31
2022-05-13 01:23:00,,0823.6,5.00,0.00,29.9,29.2,00.0,38.8,31.6,05.1,0000.0,0007.26,0002.91,0001.33
2022-05-13 01:24:00,,0823.6,5.00,0.00,29.9,29.1,00.0,38.8,31.6,05.0,0000.0,0007.35,0002.99,0001.33
2022-05-13 01:25:00,,0823.6,5.01,0.00,29.9,29.1,00.0,38.8,31.6,05.0,0000.0,0006.82,0002.95,0001.32
2022-05-13 01:26:00,,0823.5,5.01,0.00,29.9,29.1,00.0,38.8,31.7,05.0,0000.0,0007.24,0002.87,0001.32
2022-05-13 01:27:00,,0823.6,5.00,0.00,29.9,29.1,00.0,38.8,31.6,05.0,0000.0,0007.66,0002.83,0001.32
2022-05-13 01:28:00,,0823.6,5.00,0.00,29.9,29.1,00.0,38.8,31.6,05.0,0000.0,0007.66,0002.86,0001.33
2022-05-13 01:29:00,,0823.6,4.99,0.00,29.9,29.1,00.0,38.8,31.6,05.2,0000.0,0007.65,0002.87,0001.34
2022-05-13 01:30:00,,0823.7,5.00,0.00,29.9,29.1,00.0,38.8,31.6,05.2,0000.0,0007.66,0002.87,0001.34
2022-05-13 01:31:00,,0823.7,5.00,0.00,29.9,29.1,00.0,38.8,31.6,05.4,0000.0,0007.54,0002.81,0001.34
2022-05-13 01:32:00,,0823.6,4.99,0.00,29.9,29.1,00.0,38.8,31.6,05.3,0000.0,0008.12,0002.80,0001.33
2022-05-13 01:33:00,,0823.6,5.01,0.00,29.9,29.2,00.0,38.9,31.6,05.3,0000.0,0008.28,0002.76,0001.32
2022-05-13 01:34:00,,0823.6,5.00,0.00,29.9,29.2,00.0,38.9,31.6,05.2,0000.0,0008.43,0002.77,0001.31
2022-05-13 01:35:00,,0823.7,4.99,0.00,29.9,29.2,00.0,38.9,31.6,05.1,0000.0,0008.48,0002.77,0001.30
2022-05-13 01:36:00,,0823.7,5.00,0.00,29.9,29.2,00.0,38.9,31.6,05.4,0000.0,0008.38,0002.69,0001.30
2022-05-13 01:37:00,,0823.7,5.00,0.00,29.9,29.2,00.0,38.9,31.6,05.5,0000.0,0008.09,0002.68,0001.29
2022-05-13 01:38:00,,0823.7,4.99,0.00,29.9,29.2,00.0,38.9,31.6,05.5,0000.0,0007.55,0002.69,0001.28
2022-05-13 01:39:00,,0823.7,5.00,0.00,29.9,29.2,00.0,38.9,31.6,05.5,0000.0,0007.64,0002.74,0001.28
2022-05-13 01:40:00,,0823.6,5.01,0.00,29.9,29.1,00.0,38.9,31.6,05.3,0000.0,0007.65,0002.79,0001.27
2022-05-13 01:41:00,,0823.6,5.01,0.00,29.9,29.1,00.0,38.9,31.6,05.2,0000.0,0007.66,0002.82,0001.27
2022-05-13 01:42:00,,0823.6,4.99,0.00,29.9,29.1,00.0,38.9,31.6,05.2,0000.0,0007.80,0002.83,0001.26
2022-05-13 01:43:00,,0823.7,5.00,0.00,29.9,29.1,00.0,38.9,31.6,05.2,0000.0,0007.26,0002.85,0001.27
2022-05-13 01:44:00,,0823.7,5.00,0.00,29.9,29.1,00.0,38.9,31.6,05.3,0000.0,0006.86,0002.85,0001.28
2022-05-13 01:45:00,,0823.7,5.00,0.00,29.9,29.1,00.0,38.9,31.6,05.3,0000.0,0006.63,0002.85,0001.29
2022-05-13 01:46:00,,0823.6,5.00,0.00,29.9,29.1,00.0,38.9,31.5,05.4,0000.0,0006.51,0002.80,0001.30
2022-05-13 01:47:00,,0823.6,5.00,0.00,29.8,29.0,00.0,38.9,31.5,05.3,0000.0,0006.57,0002.82,0001.30
2022-05-13 01:48:00,,0823.5,5.00,0.00,29.8,29.0,00.0,38.8,31.5,05.3,0000.0,0006.88,0002.97,0001.34
2022-05-13 01:49:00,,0823.6,5.00,0.00,29.8,28.9,00.0,38.8,31.4,05.3,0000.0,0007.30,0003.05,0001.35
2022-05-13 01:50:00,,0823.7,5.00,0.00,29.8,28.9,00.0,38.8,31.4,05.3,0000.0,0007.10,0002.99,0001.33
2022-05-13 01:51:00,,0823.6,4.99,0.00,29.7,28.9,00.0,38.8,31.4,05.4,0000.0,0007.13,0002.95,0001.32
2022-05-13 01:52:00,,0823.7,5.00,0.00,29.7,28.9,00.0,38.8,31.4,05.3,0000.0,0007.14,0002.91,0001.30
2022-05-13 01:53:00,,0823.7,5.01,0.00,29.7,28.9,00.0,38.8,31.4,05.3,0000.0,0007.32,0002.84,0001.30
2022-05-13 01:54:00,,0823.7,5.00,0.00,29.7,28.9,00.0,38.8,31.4,05.3,0000.0,0007.22,0002.79,0001.28
2022-05-13 01:55:00,,0823.7,5.00,0.00,29.7,28.9,00.0,38.8,31.4,05.3,0000.0,0007.39,0002.77,0001.28
2022-05-13 01:56:00,,0823.8,5.00,0.00,29.7,28.9,00.0,38.8,31.4,05.3,0000.0,0007.37,0002.75,0001.27
2022-05-13 01:57:00,,0823.8,5.00,0.00,29.7,29.0,00.0,38.7,31.4,05.4,0000.0,0007.46,0002.82,0001.27
2022-05-13 01:58:00,,0823.9,5.01,0.00,29.7,29.0,00.0,38.7,31.4,05.5,0000.0,0007.78,0002.84,0001.28
2022-05-13 01:59:00,,0823.9,5.00,0.00,29.7,29.0,00.0,38.7,31.4,05.5,0000.0,0008.14,0002.81,0001.26
